User: anonymous   Login
Location: Unspecified
(0.0000°N, 0.0000°E)
Time: 23:49:22
(UTC+00:00)
Language:

USA 254 - Orbit

View from above orbital plane
View from above orbital plane
View from above satellite
View from above satellite

Ground track
Ground track

The orbit data is extracted from the following two-line orbital elements,

1 40100U 14043B   24174.64435844  .00000051  00000-0  00000+0 0  9998
2 40100   2.8305  85.1715 0001932 328.6039 343.7101  0.99127064 20388
Epoch (UTC): 22 June 2024 15:27:52
Eccentricity: 0.0001932
inclination: 2.8305°
perigee height: 36102 km
apogee height: 36118 km
right ascension of ascending node: 85.1715°
argument of perigee: 328.6039°
revolutions per day: 0.99127064
mean anomaly at epoch: 343.7101°
orbit number at epoch: 2038

The dashed part of the orbit path shows where the satellite is in the earth's shadow,  

DLR